Satellite: INMARSAT 3-F1
Catalog number: 23839
Epoch time:      102362.74878715
Element set:     841 
Inclination:        0.0618 deg
RA of node:        18.2214 deg
Eccentricity:    0.0005592
Arg of perigee:   221.8028 deg
Mean anomaly:     190.5550 deg
Mean motion:    1.00274532 rev/day
Decay rate:    2.4999E-007 rev/day^2
Epoch rev:            2469
Checksum:              299

Satellite: ASTRA 1F
Catalog number: 23842
Epoch time:      102364.00000000
Element set:     555 
Inclination:        0.0122 deg
RA of node:       319.8851 deg
Eccentricity:    0.0002995
Arg of perigee:    65.1991 deg
Mean anomaly:      92.4014 deg
Mean motion:    1.00273184 rev/day
Decay rate:    1.2799E-006 rev/day^2
Epoch rev:            2461
Checksum:              248

Satellite: JAS 2
Catalog number: 24278
Epoch time:      103002.50555677
Element set:     550 
Inclination:       98.5309 deg
RA of node:       160.1332 deg
Eccentricity:    0.0350903
Arg of perigee:   338.6447 deg
Mean anomaly:      20.0347 deg
Mean motion:   13.52867788 rev/day
Decay rate:   -2.2000E-007 rev/day^2
Epoch rev:           31494
Checksum:              296

Satellite: UNAMSAT
Catalog number: 24305
Epoch time:      103003.22802812
Element set:     651 
Inclination:       82.9343 deg
RA of node:       297.0518 deg
Eccentricity:    0.0030496
Arg of perigee:   335.8646 deg
Mean anomaly:      24.1066 deg
Mean motion:   13.73445685 rev/day
Decay rate:    2.0499E-006 rev/day^2
Epoch rev:           31712
Checksum:              292

Satellite: INMARSAT 3-F2
Catalog number: 24307
Epoch time:      102365.27116899
Element set:     64 
Inclination:        0.0479 deg
RA of node:        30.0937 deg
Eccentricity:    0.0004704
Arg of perigee:   249.5898 deg
Mean anomaly:     261.9372 deg
Mean motion:    1.00270574 rev/day
Decay rate:   -1.1700E-006 rev/day^2
Epoch rev:            2312
Checksum:              282

Satellite: HOT BIRD 2
Catalog number: 24665
Epoch time:      102364.09542247
Element set:     337 
Inclination:        0.0380 deg
RA of node:       203.9859 deg
Eccentricity:    0.0010678
Arg of perigee:    49.4036 deg
Mean anomaly:     252.3771 deg
Mean motion:    1.00274592 rev/day
Decay rate:    9.5999E-007 rev/day^2
Epoch rev:            2275
Checksum:              310

Satellite: INMARSAT 3-F3
Catalog number: 24674
Epoch time:      103002.62167590
Element set:     960 
Inclination:        0.0539 deg
RA of node:         1.4519 deg
Eccentricity:    0.0004295
Arg of perigee:   271.1186 deg
Mean anomaly:     231.1520 deg
Mean motion:    1.00273310 rev/day
Decay rate:    4.1000E-007 rev/day^2
Epoch rev:            2211
Checksum:              227

Satellite: GOES 10
Catalog number: 24786
Epoch time:      103003.20233797
Element set:     487 
Inclination:        0.0266 deg
RA of node:       105.5349 deg
Eccentricity:    0.0002847
Arg of perigee:   214.8188 deg
Mean anomaly:      79.4371 deg
Mean motion:    1.00275011 rev/day
Decay rate:    8.9000E-007 rev/day^2
Epoch rev:            2087
Checksum:              278

Satellite: INMARSAT 3-F4
Catalog number: 24819
Epoch time:      103003.24007652
Element set:     862 
Inclination:        0.0230 deg
RA of node:       310.9609 deg
Eccentricity:    0.0003657
Arg of perigee:   339.7498 deg
Mean anomaly:     204.1763 deg
Mean motion:    1.00269822 rev/day
Decay rate:   -2.8599E-006 rev/day^2
Epoch rev:            2054
Checksum:              291

Satellite: FENGYUN 2A
Catalog number: 24834
Epoch time:      102363.87585822
Element set:     941 
Inclination:        2.4466 deg
RA of node:        88.8933 deg
Eccentricity:    0.0001931
Arg of perigee:   238.4439 deg
Mean anomaly:     172.5930 deg
Mean motion:    1.00268131 rev/day
Decay rate:   -1.9100E-006 rev/day^2
Epoch rev:            2033
Checksum:              288

Satellite: HOT BIRD 3
Catalog number: 24931
Epoch time:      102364.09542247
Element set:     418 
Inclination:        0.0070 deg
RA of node:       329.5839 deg
Eccentricity:    0.0008855
Arg of perigee:   285.9646 deg
Mean anomaly:     250.1886 deg
Mean motion:    1.00273530 rev/day
Decay rate:    9.5000E-007 rev/day^2
Epoch rev:            1957
Checksum:              298

Satellite: METEOSAT 7
Catalog number: 24932
Epoch time:      103002.87952483
Element set:     220 
Inclination:        0.1233 deg
RA of node:        32.9842 deg
Eccentricity:    0.0001500
Arg of perigee:   233.8175 deg
Mean anomaly:     151.8056 deg
Mean motion:    1.00270714 rev/day
Decay rate:   -5.0000E-008 rev/day^2
Epoch rev:            1955
Checksum:              245

Satellite: ASTRA 1G
Catalog number: 25071
Epoch time:      102364.00000000
Element set:     386 
Inclination:        0.0122 deg
RA of node:       319.8851 deg
Eccentricity:    0.0002995
Arg of perigee:    65.1991 deg
Mean anomaly:      92.3633 deg
Mean motion:    1.00273184 rev/day
Decay rate:    1.2799E-006 rev/day^2
Epoch rev:            1863
Checksum:              257

Satellite: INMARSAT 3-F5
Catalog number: 25153
Epoch time:      102365.01026622
Element set:     826 
Inclination:        0.4520 deg
RA of node:       357.5009 deg
Eccentricity:    0.0003812
Arg of perigee:   306.4439 deg
Mean anomaly:     183.9650 deg
Mean motion:    1.00269000 rev/day
Decay rate:    1.4700E-006 rev/day^2
Epoch rev:            1800
Checksum:              246

Satellite: HOT BIRD 4
Catalog number: 25237
Epoch time:      102364.09542247
Element set:     323 
Inclination:        0.0611 deg
RA of node:       171.7992 deg
Eccentricity:    0.0008910
Arg of perigee:    46.8775 deg
Mean anomaly:     287.0610 deg
Mean motion:    1.00272623 rev/day
Decay rate:    9.5000E-007 rev/day^2
Epoch rev:            1803
Checksum:              267

Satellite: NOAA 15
Catalog number: 25338
Epoch time:      103004.00402353
Element set:     957 
Inclination:       98.5515 deg
RA of node:        27.3875 deg
Eccentricity:    0.0011444
Arg of perigee:    89.2203 deg
Mean anomaly:     271.0287 deg
Mean motion:   14.24222547 rev/day
Decay rate:    2.1599E-006 rev/day^2
Epoch rev:           24131
Checksum:              286

Satellite: RESURS O1-N4
Catalog number: 25394
Epoch time:      103003.88948483
Element set:     415 
Inclination:       98.6379 deg
RA of node:        82.6457 deg
Eccentricity:    0.0000760
Arg of perigee:   214.0243 deg
Mean anomaly:     146.0882 deg
Mean motion:   14.23859819 rev/day
Decay rate:    1.7400E-006 rev/day^2
Epoch rev:           23303
Checksum:              318

Satellite: TMSAT
Catalog number: 25396
Epoch time:      103001.95020273
Element set:     898 
Inclination:       98.6334 deg
RA of node:        79.9688 deg
Eccentricity:    0.0001674
Arg of perigee:   267.6697 deg
Mean anomaly:      92.4292 deg
Mean motion:   14.23494565 rev/day
Decay rate:   -4.3000E-007 rev/day^2
Epoch rev:           23275
Checksum:              337

Satellite: TECHSAT 1B
Catalog number: 25397
Epoch time:      103001.95357640
Element set:     135 
Inclination:       98.6290 deg
RA of node:        78.9174 deg
Eccentricity:    0.0000425
Arg of perigee:   319.6936 deg
Mean anomaly:      40.4210 deg
Mean motion:   14.22947896 rev/day
Decay rate:    1.3200E-006 rev/day^2
Epoch rev:           23272
Checksum:              414

Satellite: ASTRA 2A
Catalog number: 25462
Epoch time:      102364.00000000
Element set:     527 
Inclination:        0.0385 deg
RA of node:       308.7109 deg
Eccentricity:    0.0004824
Arg of perigee:   280.8620 deg
Mean anomaly:     256.9180 deg
Mean motion:    1.00272094 rev/day
Decay rate:    1.5800E-006 rev/day^2
Epoch rev:            1593
Checksum:              241

Satellite: EUTELSAT W2
Catalog number: 25491
Epoch time:      103002.85067688
Element set:     555 
Inclination:        0.0332 deg
RA of node:       118.6886 deg
Eccentricity:    0.0002377
Arg of perigee:   157.3852 deg
Mean anomaly:     148.2321 deg
Mean motion:    1.00273123 rev/day
Decay rate:    1.0400E-006 rev/day^2
Epoch rev:            1558
Checksum:              266

Satellite: HOT BIRD 5
Catalog number: 25495
Epoch time:      103001.91737848
Element set:     487 
Inclination:        0.0465 deg
RA of node:       155.6053 deg
Eccentricity:    0.0003909
Arg of perigee:   128.2106 deg
Mean anomaly:     180.6460 deg
Mean motion:    1.00270419 rev/day
Decay rate:    1.5800E-006 rev/day^2
Epoch rev:            1554
Checksum:              274

Satellite: SEDSAT 1
Catalog number: 25509
Epoch time:      103004.19063808
Element set:     749 
Inclination:       31.4335 deg
RA of node:        49.4211 deg
Eccentricity:    0.0358198
Arg of perigee:   266.5979 deg
Mean anomaly:      89.3632 deg
Mean motion:   14.27339631 rev/day
Decay rate:    1.2059E-005 rev/day^2
Epoch rev:           21882
Checksum:              322

Satellite: PAN SAT
Catalog number: 25520
Epoch time:      103003.54051030
Element set:     625 
Inclination:       28.4660 deg
RA of node:       170.3972 deg
Eccentricity:    0.0005738
Arg of perigee:   219.2235 deg
Mean anomaly:     140.7929 deg
Mean motion:   15.13624490 rev/day
Decay rate:    2.1969E-005 rev/day^2
Epoch rev:           23060
Checksum:              272

Satellite: ISS (ZARYA)
Catalog number: 25544
Epoch time:      103004.14312203
Element set:     544 
Inclination:       51.6359 deg
RA of node:       124.2566 deg
Eccentricity:    0.0004771
Arg of perigee:   356.9118 deg
Mean anomaly:      63.1985 deg
Mean motion:   15.58471417 rev/day
Decay rate:    2.0325E-004 rev/day^2
Epoch rev:           23545
Checksum:              389

